TimePDT,TemperatureF,Dew PointF,Humidity,Sea Level PressureIn,VisibilityMPH,Wind Direction,Wind SpeedMPH,Gust SpeedMPH,PrecipitationIn,Events,Conditions,WindDirDegrees,DateUTC
12:54 AM,62.1,54.0,75,29.98,10.0,Calm,Calm,-,N/A,,Clear,0,2013-07-24 07:54:00
1:54 AM,63.0,55.9,78,30.00,10.0,WSW,4.6,-,N/A,,Clear,250,2013-07-24 08:54:00
2:54 AM,57.0,52.0,83,30.00,10.0,Calm,Calm,-,N/A,,Clear,0,2013-07-24 09:54:00
3:54 AM,59.0,53.1,81,30.00,10.0,Calm,Calm,-,N/A,,Clear,0,2013-07-24 10:54:00
4:54 AM,59.0,54.0,83,30.01,10.0,Calm,Calm,-,N/A,,Clear,0,2013-07-24 11:54:00
5:54 AM,57.0,52.0,83,30.01,10.0,Calm,Calm,-,N/A,,Partly Cloudy,0,2013-07-24 12:54:00
6:54 AM,60.1,55.0,83,30.01,10.0,Calm,Calm,-,N/A,,Partly Cloudy,0,2013-07-24 13:54:00
7:54 AM,66.0,55.9,70,30.02,10.0,Calm,Calm,-,N/A,,Partly Cloudy,0,2013-07-24 14:54:00
8:54 AM,72.0,55.9,57,30.03,10.0,North,6.9,-,N/A,,Partly Cloudy,360,2013-07-24 15:54:00
9:54 AM,77.0,55.0,47,30.02,10.0,North,9.2,-,N/A,,Partly Cloudy,10,2013-07-24 16:54:00
10:54 AM,82.0,53.1,37,30.01,10.0,NNE,12.7,-,N/A,,Partly Cloudy,30,2013-07-24 17:54:00
11:54 AM,84.9,54.0,34,30.01,10.0,NNE,11.5,-,N/A,,Partly Cloudy,20,2013-07-24 18:54:00
12:54 PM,89.1,52.0,28,29.99,10.0,North,10.4,-,N/A,,Partly Cloudy,10,2013-07-24 19:54:00
1:54 PM,91.0,46.9,22,29.98,10.0,North,13.8,19.6,N/A,,Partly Cloudy,10,2013-07-24 20:54:00
2:54 PM,93.9,44.1,18,29.97,10.0,North,11.5,20.7,N/A,,Partly Cloudy,360,2013-07-24 21:54:00
3:54 PM,95.0,42.1,16,29.96,10.0,NNE,12.7,-,N/A,,Partly Cloudy,30,2013-07-24 22:54:00
4:54 PM,95.0,45.0,18,29.95,10.0,North,10.4,19.6,N/A,,Partly Cloudy,360,2013-07-24 23:54:00
5:54 PM,93.9,46.0,19,29.94,10.0,NNE,9.2,-,N/A,,Partly Cloudy,20,2013-07-25 00:54:00
6:54 PM,91.9,45.0,20,29.94,10.0,NNE,12.7,-,N/A,,Partly Cloudy,20,2013-07-25 01:54:00
7:54 PM,88.0,48.0,25,29.94,10.0,NNE,9.2,-,N/A,,Partly Cloudy,20,2013-07-25 02:54:00
8:54 PM,77.0,54.0,45,29.96,10.0,North,8.1,-,N/A,,Partly Cloudy,360,2013-07-25 03:54:00
9:54 PM,72.0,55.0,55,29.97,10.0,North,9.2,-,N/A,,Clear,360,2013-07-25 04:54:00
10:54 PM,70.0,54.0,57,29.98,10.0,Calm,Calm,-,N/A,,Clear,0,2013-07-25 05:54:00
11:54 PM,68.0,54.0,61,29.99,10.0,Calm,Calm,-,N/A,,Clear,0,2013-07-25 06:54:00